OBJECT Y, 57188

Orbit data source: Space-Track

You're viewing an Uncataloged Satellite

Recently launched and/or uncataloged satellites may have evolving metadata. Metadata may include but not limited to: Owner, Maufacturer, Bus, Motor, and Mission.

OBJECT Y, 57188 is a satellite in SSO that was launched on Tue, 27 Jun 2023 UTC via a SOYUZ-2-1B launch vehicle from the Vostochny Cosmodrome (VOSTO). Unknown objects in Earth's orbit typically refer to objects detected orbiting the Earth but have not yet been identified or cataloged. These objects could be anything from previously untracked satellites, spent rocket stages, debris from satellite collisions, or even natural meteoroids temporarily captured by Earth's gravity.

Loading next visibility...
Identifier
57188, 2023-091Y
Orbit
SSO
Country
Flag of TBDTBD
Related business
Flag of RUMoscow State Technical University of Civil Aviation (RU)
Manufacturer
MGTU Bauman
Mission
Operational Amateur Technology
Bus & Motor
CUBESAT 6U?, Unknown motor
Mass
10 kg wet, 10 kg dry
Launch date (UTC)
2023-06-27 (3 years ago)
Launch vehicle
SOYUZ-2-1B
Launch site
Vostochny Cosmodrome (VOSTO)
Object type
Unknown
Shape & HBR
Box, 0.1 m
Radar Cross Section
0.080 m², Medium (>0.1 m² and < 1m²)

Expand to show TLE details & history
Last TLE update: 6 hours ago

TLE from 6 hours ago
0 OBJECT Y
1 57188U 23091Y   26162.80139692  .00008463  00000-0  32529-3 0  9994
2 57188  97.5075 226.3517 0010377 110.1958 250.0397 15.26625973163498
Epoch: 2026-06-11T19:14Z
TLE epoch observation values (Epoch: 2026-06-11T19:14:00.693Z)
Latitude
-0.00009°
Longitude
37.70884°
Altitude
491.442 km
Speed
7.618 km/s
True Right ascension
15h 05m 24s
True Declination
0° 00' 00"
Sunlit
Object was in full shadow at epoch
Visualization orbit readout
Latitude
Unknown
Longitude
Unknown
Altitude
Unknown
Speed
Unknown
Apparent Right ascension
Unknown
Apparent Declination
Unknown
Sunlit
N/A
Visualization observer readout
Local Sidereal Time
11:28:41
Azimuth
Unknown
Elevation
Unknown
Doppler factor
Unknown
Orbital elements
Apogee altitude
489.988 km
Perigee altitude
475.749 km
Semi-major axis
6,861.006 km
Eccentricity
0.00104
Inclination
97.5075°
RAAN
226.3517°
Arg. of periapsis
110.1958°
True anomaly
249.92798°
Mean anomaly
250.0397°
Eccentric anomaly
249.98384°
Mean motion
3.8191 °/min
Orbital period
94.26 mins
BSTAR
0.00032529
Loading maneuver chart data...
Computing Atmospheric mass density...
Loading historical data...
Loading historical data...
Loading historical data...
Loading historical data...
Loading historical data...
Loading historical data...
Loading historical data...

Documentation

Showing up to 5 results
|